ARIANE 5 R/B, 43059

Orbit data source: Space-Track

ARIANE 5 R/B, 43059 is space debris originally from a launch on Tue, 12 Dec 2017 UTC launched from the French Guiana (FRGUI). Debris objects in space refer to the collection of defunct objects orbiting the Earth. Examples of debris include non-operational satellites, rocket bodies, and fragments generated from explosions, collisions, or faulty payload assembly.

Loading next visibility...
ARIANE 5 R/B details
Identifier
43059, 2017-079E
Orbit
Active
Last TLE update2 days ago
Origin
Flag of FRArianespace (FR)
ManufacturerADS/Bremen
MissionSpacecraft
Bus & MotorEPS+, AESTUS
Mass3,300 kg wet, 3,300 kg dry
Launch date (UTC)
2017-12-12 (7 years ago)
Launch vehicleUnknown
Launch site
French Guiana (FRGUI)
Object type
Payload
Rocket body
Debris
Shape & HBRCone + Cyl, 5.46 m
Radar Cross Section32.805 m², Large (>1 m²)

Expand to show TLE details & history

TLE from 2 days ago
0 ARIANE 5 R/B
1 43059U 17079E   24359.40319722  .00000040  00000-0  00000-0 0  9990
2 43059  55.2715 233.8969 0001284 287.8749  72.1950  1.73189304 44501
Epoch: 2024-12-24T09:40Z
Definitive object data (Epoch: 2024-12-24T09:40:36.239Z)
Latitude-0°
Longitude-4.65607°
Altitude22,911.101 km
Speed3.689 km/s
True Right ascension15h 35m 37s
True Declination0° 00' 00"
Sunlit
Object was in daylight at TLE epoch
Visualization TLE readout
Latitude-55.24616°
Longitude-98.77737°
Altitude22,928.788 km
Speed3.689 km/s
Apparent Right ascension08h 15m 14s
Apparent Declination-62° 54' 41"
Sunlit
Object is in daylight
Visualization observer readout
Local Sidereal Time12:54:50
Azimuth208.634° SW
Elevation-26.825°
Doppler factor1
Orbital elements
Apogee altitude22,915.741 km
Perigee altitude22,908.219 km
Semi-major axis29,290.117 km
Eccentricity0.0001284
Inclination55.2715°
RAAN233.8969°
Arg. of periapsis287.8749°
True anomaly72.20901°
Mean anomaly72.195°
Eccentric anomaly72.202°
Mean motion0.43297 °/min
BSTARUnknown
Orbital period831.46 mins
Loading maneuver chart data...
Loading historical data...
Loading historical data...
Loading historical data...
Loading historical data...
Loading historical data...
Loading historical data...
Loading historical data...

ARIANE 5 R/B Visibility forecast

Observer location: undefined°, undefined

Span
Click to sort rows by Start time (UTC) header in descending order
Start Az.
Max El. time (UTC)
Max El. Az.
Max El.
End time (UTC)
End Az.
482 mins2024-12-26 15:52:09.155Z194.051° SSW2024-12-26 19:14:09.155Z302.705° NW44.811°2024-12-26 23:54:09.155Z106.236° ESE
|